Location: Cannifist
(18.2333°N, 63.0167°W)
Time: 00:08:01
(UTC+00:00)

N. Korean satellite - Pass Details

Date: 24 June 2021
Orbit: 451 x 498 km, 97.2° (Epoch: 02 August)

Event Time Altitude Azimuth Distance (km) Brightness Sun altitude
Rises 09:02:42 0° 18° (NNE) 2,568 11.0 -8.3°
Reaches altitude 10° 09:04:49 10° 24° (NNE) 1,689 10.2 -7.9°
Maximum altitude 09:08:21 50° 100° (E) 639 7.6 -7.1°
Drops below altitude 10° 09:11:54 10° 176° (S) 1,692 9.1 -6.4°
Sets 09:14:01 0° 182° (S) 2,573 10.0 -5.9°
